Alma, GA

8:06 AM EDT on March 23, 2017 (GMT -0400)
Bacon County

Weather History for KAMG - January, 2012

Change the Weather History Date:

Wednesday, January 11, 2012

  Actual Average Record
Temperature  
Mean Temperature 61 °F 50 °F  
Max Temperature 70 °F 61 °F 82 °F (1949)
Min Temperature 51 °F 39 °F 11 °F (1982)
Degree Days  
Heating Degree Days 4 15  
Month to date heating degree days 136 165  
Since 1 July heating degree days 677 805  
Cooling Degree Days 0 0  
Month to date cooling degree days 0 0  
Year to date cooling degree days 0 0  
Growing Degree Days 10 (Base 50)    
Moisture  
Dew Point 56 °F    
Average Humidity 71    
Maximum Humidity 90    
Minimum Humidity 51    
Precipitation  
Precipitation 0.17 in 0.14 in 2.70 in (1991)
Month to date precipitation 0.17 1.41  
Year to date precipitation 0.17 1.41  
Snow  
Snow 0.00 in 0.00 in 0.00 in ()
Month to date snowfall 0.0 0.0  
Since 1 July snowfall 0.0 0.1  
Snow Depth 0.00 in    
Sea Level Pressure  
Sea Level Pressure 29.75 in    
Wind  
Wind Speed 7 mph (South)    
Max Wind Speed 18 mph    
Max Gust Speed 24 mph    
Visibility 7 miles    
Events Rain , Thunderstorm    
T = Trace of Precipitation, MM = Missing Value Source: NWS Daily Summary

Daily Weather History Graph

Daily Weather History Graph

Search for Another Location

Airport or City:

Trip Planner

Search our weather history database for the weather conditions in past years. The results will help you decide how hot, cold, wet, or windy it might be!

Date:

Astronomy

Jan. 11, 2012 Rise Set
Actual Time 7:30 AM EST 5:45 PM EST
Civil Twilight 7:03 AM EST 6:11 PM EST
Nautical Twilight 6:33 AM EST 6:41 PM EST
Astronomical Twilight 6:04 AM EST 7:11 PM EST
Moon 8:29 PM EST (1/11) 8:52 AM EST (1/11)
Length of Visible Light 11h 08m
Length of Day
10h 15m
Waning Gibbous, 93% of the Moon is Illuminated
Jan 11
Waning Gibbous
Jan 16
Last Quarter
Jan 23
New
Jan 30
First Quarter
Feb 7
Full

Hourly Weather History & Observations

Time (EST) Temp. Dew Point Humidity Pressure Visibility Wind Dir Wind Speed Gust Speed Precip Events Conditions
12:53 AM 64.0 °F 57.0 °F 78% 29.86 in 8.0 mi East 5.8 mph - N/A   Mostly Cloudy
1:03 AM 64.4 °F 57.2 °F 77% 29.86 in 8.0 mi ESE 5.8 mph - N/A   Partly Cloudy
1:53 AM 62.1 °F 57.0 °F 84% 29.84 in 9.0 mi East 3.5 mph - N/A   Clear
2:53 AM 62.1 °F 57.0 °F 84% 29.82 in 9.0 mi East 5.8 mph - N/A   Clear
3:53 AM 61.0 °F 55.9 °F 83% 29.79 in 9.0 mi ESE 4.6 mph - N/A   Scattered Clouds
4:53 AM 62.1 °F 57.0 °F 84% 29.79 in 10.0 mi SSE 4.6 mph - N/A   Overcast
5:53 AM 62.1 °F 57.0 °F 84% 29.78 in 10.0 mi SE 4.6 mph - N/A   Partly Cloudy
6:53 AM 62.1 °F 55.9 °F 80% 29.76 in 10.0 mi Variable 5.8 mph - N/A   Clear
7:53 AM 63.0 °F 55.9 °F 78% 29.75 in 8.0 mi SE 6.9 mph - 0.00 in Rain Light Rain
8:48 AM 62.6 °F 57.2 °F 82% 29.77 in 8.0 mi Variable 3.5 mph - 0.01 in Thunderstorm Overcast
8:53 AM 62.1 °F 57.0 °F 84% 29.77 in 7.0 mi SSE 4.6 mph - 0.01 in Rain , Thunderstorm Light Rain
9:09 AM 62.6 °F 57.2 °F 82% 29.79 in 3.0 mi South 5.8 mph - 0.03 in Rain Light Rain
9:28 AM 60.8 °F 57.2 °F 88% 29.78 in 2.0 mi SE 5.8 mph - 0.07 in Rain Rain
9:39 AM 60.8 °F 57.2 °F 88% 29.78 in 1.8 mi SE 5.8 mph - 0.12 in Rain , Thunderstorm Heavy Rain
9:53 AM 61.0 °F 57.9 °F 90% 29.78 in 2.5 mi SSE 5.8 mph - 0.14 in Rain Rain
10:08 AM 62.6 °F 57.2 °F 82% 29.78 in 5.0 mi South 10.4 mph 17.3 mph 0.01 in Rain Light Rain
10:46 AM 62.6 °F 59.0 °F 88% 29.77 in 7.0 mi South 10.4 mph - 0.01 in   Overcast
10:53 AM 63.0 °F 59.0 °F 87% 29.76 in 8.0 mi South 10.4 mph 18.4 mph 0.01 in   Overcast
11:00 AM 62.6 °F 59.0 °F 88% 29.76 in 8.0 mi South 10.4 mph - N/A   Overcast
11:29 AM 62.6 °F 60.8 °F 94% 29.74 in 8.0 mi South 9.2 mph - N/A   Overcast
11:44 AM 64.4 °F 60.8 °F 88% 29.73 in 8.0 mi South 5.8 mph - N/A   Overcast
11:53 AM 64.0 °F 60.1 °F 87% 29.72 in 8.0 mi South 5.8 mph - N/A   Overcast
12:07 PM 62.6 °F 60.8 °F 94% 29.71 in 4.0 mi South 11.5 mph - 0.00 in Rain Light Rain
12:10 PM 62.6 °F 60.8 °F 94% 29.71 in 2.5 mi SSW 8.1 mph - 0.00 in Rain Light Rain
12:13 PM 62.6 °F 60.8 °F 94% 29.71 in 1.8 mi SSW 6.9 mph - 0.00 in Rain Light Rain
12:27 PM 62.6 °F 60.8 °F 94% 29.70 in 1.5 mi SW 11.5 mph 17.3 mph 0.01 in Rain Light Rain
12:33 PM 62.6 °F 60.8 °F 94% 29.70 in 2.0 mi SW 9.2 mph 17.3 mph 0.01 in Rain Light Rain
12:43 PM 62.6 °F 60.8 °F 94% 29.69 in 5.0 mi SW 4.6 mph - 0.01 in   Overcast
12:53 PM 63.0 °F 59.0 °F 87% 29.69 in 7.0 mi SSW 12.7 mph 17.3 mph 0.01 in   Overcast
1:02 PM 62.6 °F 57.2 °F 82% 29.69 in 9.0 mi SSW 8.1 mph - N/A   Overcast
1:25 PM 66.2 °F 59.0 °F 78% 29.68 in 10.0 mi SSW 8.1 mph - N/A   Mostly Cloudy
1:53 PM 68.0 °F 55.9 °F 65% 29.67 in 10.0 mi SW 13.8 mph 23.0 mph N/A   Scattered Clouds
2:53 PM 70.0 °F 53.1 °F 55% 29.65 in 10.0 mi SW 15.0 mph 21.9 mph N/A   Partly Cloudy
4:53 PM 66.9 °F 48.0 °F 51% 29.67 in 10.0 mi WSW 10.4 mph 20.7 mph N/A   Partly Cloudy
5:53 PM 63.0 °F 46.9 °F 56% 29.70 in 10.0 mi West 10.4 mph - N/A   Mostly Cloudy
6:53 PM 61.0 °F 45.0 °F 56% 29.71 in 10.0 mi WSW 5.8 mph - N/A   Partly Cloudy
7:53 PM 57.9 °F 46.0 °F 65% 29.73 in 10.0 mi WSW 3.5 mph - N/A   Clear
8:53 PM 55.0 °F 45.0 °F 69% 29.75 in 10.0 mi SW 3.5 mph - N/A   Partly Cloudy
9:53 PM 51.1 °F 45.0 °F 80% 29.76 in 10.0 mi SW 3.5 mph - N/A   Scattered Clouds
10:53 PM 54.0 °F 44.1 °F 69% 29.79 in 10.0 mi WNW 4.6 mph - N/A   Overcast
11:53 PM 54.0 °F 42.1 °F 64% 29.80 in 10.0 mi WNW 4.6 mph - N/A   Overcast